This demonstration page uses our WeatherBlox Daily Observations layout. Learn more.

Left ArrowRight Arrow

36.17497, -115.13722

Hourly Observations for August 26, 2019

Temp ( °F °C ) Dew Point ( °F °C ) Humidity (%) Winds ( mph kmh ) Pressure ( in mb ) Visibility ( mi km ) Precip ( " mm )
12:53 am 00:53 Clear 87 30.6 39 3.9 18 18 NNW 5 7 29.80 1009 10 16 0.00 0.00
1:53 am 01:53 Clear 86 30 38 3.3 18 18 VRB 3 6 29.80 1009 10 16 0.00 0.00
2:53 am 02:53 Clear 85 29.4 38 3.3 19 19 N 6 9 29.80 1009 10 16 0.00 0.00
3:53 am 03:53 Clear 84 28.9 36 2.2 18 18 NW 3 6 29.81 1010 10 16 0.00 0.00
4:53 am 04:53 Clear 81 27.2 36 2.2 20 20 NW 5 7 29.82 1010 10 16 0.00 0.00
5:53 am 05:53 Clear 81 27.2 36 2.2 20 20 NW 6 9 29.83 1010 10 16 0.00 0.00
6:53 am 06:53 Sunny 80 26.7 40 4.4 24 24 NW 8 13 29.85 1011 10 16 0.00 0.00
7:53 am 07:53 Sunny 86 30 37 2.8 18 18 NW 6 9 29.87 1011 10 16 0.00 0.00
8:53 am 08:53 Sunny 90 32.2 50 10 25 25 N 5 7 29.87 1012 10 16 0.00 0.00
9:53 am 09:53 Sunny 94 34.4 47 8.3 20 20 ENE 6 9 29.87 1012 10 16 0.00 0.00
10:53 am 10:53 Sunny 96 35.6 44 6.7 17 17 VRB 7 11 29.87 1012 10 16 0.00 0.00
11:53 am 11:53 Sunny 99 37.2 43 6.1 15 15 VRB 7 11 29.85 1011 10 16 0.00 0.00
12:53 pm 12:53 Sunny 102 38.9 43 6.1 13 13 N 6 9 29.83 1010 10 16 0.00 0.00
1:53 pm 13:53 Sunny 104 40 41 5 12 12 Calm 29.80 1009 10 16 0.00 0.00
2:53 pm 14:53 Sunny 104 40 41 5 12 12 Calm 29.78 1008 10 16 0.00 0.00
3:53 pm 15:53 Sunny 106 41.1 40 4.4 10 10 Calm 29.75 1008 10 16 0.00 0.00
4:53 pm 16:53 Sunny 105 40.6 38 3.3 10 10 VRB 3 6 29.74 1007 10 16 0.00 0.00
5:53 pm 17:53 Sunny 105 40.6 38 3.3 10 10 VRB 6 9 29.73 1007 10 16 0.00 0.00
6:53 pm 18:53 Sunny 103 39.4 37 2.8 10 10 E 6 9 29.72 1007 10 16 0.00 0.00
7:53 pm 19:53 Clear 100 37.8 38 3.3 12 12 E 5 7 29.73 1007 10 16 0.00 0.00
8:53 pm 20:53 Clear 98 36.7 40 4.4 13 13 Calm 29.75 1008 10 16 0.00 0.00
9:53 pm 21:53 Clear 98 36.7 45 7.2 16 16 SSW 5 7 29.75 1008 10 16 0.00 0.00
10:53 pm 22:53 Clear 93 33.9 45 7.2 19 19 WNW 3 6 29.75 1008 10 16 0.00 0.00
11:53 pm 23:53 Clear 91 32.8 43 6.1 19 19 W 3 6 29.76 1008 10 16 0.00 0.00

Powered by AerisWeather